Tracking 33199 objects as of 16-Feb-2026
HD Live streaming from Space Station
objects crossing your sky now

PROTOSAT-1

Track PROTOSAT-1 now!
10-day predictions


NORAD ID: 61793
Int'l Code: 2024-201B
Perigee: 401.0 km
Apogee: 429.6 km
Inclination: 97.9 °
Period: 92.7 minutes
Semi major axis: 6786 km
RCS: Unknown
Launch date: November 5, 2024
Source: Republic of Rwanda (RWA)
Launch site: Rocket Lab Launch Complex (RLLC)
Your satellite tracking list
Your tracking list is empty




NASA's NSSDC Master Catalog

Two Line Element Set (TLE):
1 61793U 24201B   26047.29863424  .00418416  00000-0  63467-2 0  9994
2 61793  97.9035 327.7477 0021075 117.6121 242.7273 15.52920195 69957
Source of the keplerian elements: AFSPC